Regional Weather Roundup
Issued by NWS Kansas City/Pleasant Hill, MO

Home | Current Version | Previous Version | Graphics & Text | Print | Product List | Glossary Off
Versions: 1 2 3 4 5 6 7 8 9 10 11 12 13 14 15 16 17 18 19 20 21 22 23 24 25 26 27 28 29 30 31 32 33 34 35 36 37 38 39 40 41 42 43 44 45 46 47 48 49 50

000
ASUS43 KEAX 230411
RWREAX

WEATHER ROUNDUP FOR EASTERN KANSAS AND NORTHWEST MISSOURI
NATIONAL WEATHER SERVICE KANSAS CITY/PLEASANT HILL MO
1100 PM CDT WED OCT 22 2014

KSZ040-057-103>105-MOZ028-029-037-043-230500-
...KANSAS CITY METROPOLITAN AREA...

CITY           SKY/WX    TMP DP  RH WIND       PRES   REMARKS
K.C. INTL      MOCLDY    60  51  72 SE9       30.11S
K.C. DOWNTOWN  PTCLDY    65  50  58 S8        30.11S
LEES SUMMIT    PTCLDY    60  48  64 SE7       30.13S
OLATHE - IXD   MOCLDY    62  52  69 SE12      30.12S
OLATHE - OJC   PTCLDY    61  53  75 S9        30.11S
LAWRENCE       MOCLDY    62  54  74 SE8       30.10S

$$

MOZ001>008-011>017-020>025-030>033-038>040-044>046-053-054-230500-
...NORTHERN AND CENTRAL MISSOURI...

CITY           SKY/WX    TMP DP  RH WIND       PRES   REMARKS
ST. JOSEPH     PTCLDY    62  50  64 S6        30.10S
MOSBY          CLEAR     59  46  63 E3        30.12S
WHITEMAN AFB   PTCLDY    55  46  73 SE6       30.14S
CLINTON        PTCLDY    57  48  72 SE3       30.16S
SEDALIA        PTCLDY    55  45  68 SE8       30.17S
WARSAW         NOT AVBL
MARSHALL       PTCLDY    55  46  71 E8        30.17S
CHILLICOTHE      N/A     57  45  64 SE6       30.16S
MOBERLY        CLEAR     48  39  71 SE5       30.20S
KIRKSVILLE     CLEAR     47  42  83 SE8       30.19S

$$

MOZ041-047>049-056>058-063>065-088>090-097-230500-
...EASTERN AND SOUTHERN MISSOURI...

CITY           SKY/WX    TMP DP  RH WIND       PRES   REMARKS
ST. LOUIS INTL PTCLDY    49  40  71 E3        30.25R
SPIRIT OF STL  CLEAR     42  40  92 CALM      30.24R
COLUMBIA       CLEAR     51  42  71 SE8       30.20S
JEFFERSON CITY CLEAR     48  41  76 SE5       30.19S
MEXICO         CLEAR     46  45  93 CALM      30.20S FOG
HANNIBAL       CLEAR     52  39  62 SE5       30.21S
ROLLA          CLEAR     46  39  76 SE9       30.19S
LEBANON        CLEAR     50  45  81 SE5       30.20R
OSAGE BEACH    CLEAR     52  43  71 SE5       30.18F
SPRINGFIELD    CLEAR     55  47  74 S9        30.17R
BRANSON        MOCLDY    54  46  76 SE6       30.20R
NEVADA         MOCLDY    59  50  72 SE9       30.15S
JOPLIN         CLEAR     60  51  72 SE8       30.15S
WEST PLAINS    CLEAR     46  41  82 CALM      30.22F

$$

IAZ060-094-KSZ022-034>040-054-083-096-NEZ052-066-093-230500-
...KANSAS...SOUTHEAST NEBRASKA AND IOWA...

CITY           SKY/WX    TMP DP  RH WIND       PRES   REMARKS
TOPEKA         CLOUDY    67  58  72 SE14      30.08S
MANHATTAN      LGT RAIN  64  60  87 CALM      30.07S
EMPORIA        LGT RAIN  64  58  80 S10       30.09S
CHANUTE        MOCLDY    63  59  87 SE8       30.12R
WICHITA        CLOUDY    66  57  72 SW10      30.10R
OMAHA          CLOUDY    63  60  90 SE9       30.05R
LINCOLN        CLOUDY    62  59  90 S12       30.05S
FALLS CITY     CLOUDY    65  56  72 S10       30.06S
LAMONI         PTCLDY    56  45  66 SE10      30.12F
DES MOINES     MOCLDY    57  44  62 SE12      30.11F

$$




USA.gov is the U.S. government's official web portal to all federal, state and local government web resources and services.